Hourly Weather Jucurutu

Today, 6 May, Thursday

Time Temperature Precipitation Wind Pressure Humidity
00:00 +26°C° 0.4 mm 1 mps 750 mmHg 88%
01:00 +25°C° 0.4 mm 1 mps 750 mmHg 90%
02:00 +25°C° 0.1 mm 1 mps 750 mmHg 90%
03:00 +25°C° 0.1 mm 1 mps 750 mmHg 90%
04:00 +25°C° 0.1 mm 1 mps 749 mmHg 90%
05:00 +25°C° 0 mm 1 mps 750 mmHg 89%
06:00 +25°C° 0 mm 1 mps 750 mmHg 88%
07:00 +25°C° 0 mm 1 mps 750 mmHg 87%
08:00 +27°C° 0 mm 2 mps 751 mmHg 79%
09:00 +28°C° 0 mm 3 mps 751 mmHg 71%
10:00 +30°C° 0 mm 4 mps 751 mmHg 63%
11:00 +32°C° 0 mm 4 mps 751 mmHg 57%
12:00 +34°C° 0 mm 4 mps 750 mmHg 50%
13:00 +35°C° 0 mm 4 mps 750 mmHg 44%
14:00 +35°C° 0 mm 3 mps 749 mmHg 43%
15:00 +36°C° 0 mm 3 mps 748 mmHg 43%
16:00 +36°C° 0 mm 3 mps 748 mmHg 42%
17:00 +34°C° 0 mm 2 mps 748 mmHg 50%
18:00 +31°C° 0 mm 2 mps 748 mmHg 58%
19:00 +29°C° 0 mm 2 mps 749 mmHg 66%
20:00 +29°C° 0.3 mm 2 mps 749 mmHg 69%
21:00 +29°C° 0.3 mm 2 mps 750 mmHg 71%
22:00 +28°C° 0.3 mm 2 mps 751 mmHg 74%
23:00 +28°C° 0.1 mm 2 mps 751 mmHg 76%

Tomorrow, 7 May, Friday

Time Temperature Precipitation Wind Pressure Humidity
00:00 +27°C° 0.1 mm 2 mps 751 mmHg 78%
01:00 +27°C° 0.1 mm 2 mps 751 mmHg 81%
02:00 +26°C° 0 mm 2 mps 751 mmHg 83%
03:00 +26°C° 0 mm 1 mps 750 mmHg 84%
04:00 +25°C° 0 mm 1 mps 750 mmHg 86%
05:00 +25°C° 0 mm 1 mps 750 mmHg 86%
06:00 +25°C° 0 mm 1 mps 751 mmHg 86%
07:00 +25°C° 0 mm 1 mps 751 mmHg 85%
08:00 +27°C° 0 mm 2 mps 751 mmHg 75%
09:00 +29°C° 0 mm 2 mps 752 mmHg 65%
10:00 +30°C° 0 mm 3 mps 752 mmHg 55%
11:00 +32°C° 0 mm 2 mps 752 mmHg 50%
12:00 +34°C° 0 mm 2 mps 751 mmHg 45%
13:00 +36°C° 0 mm 2 mps 750 mmHg 40%
14:00 +35°C° 0 mm 2 mps 750 mmHg 44%
15:00 +34°C° 0 mm 3 mps 749 mmHg 48%
16:00 +34°C° 0 mm 4 mps 749 mmHg 51%
17:00 +31°C° 0 mm 3 mps 749 mmHg 58%
18:00 +30°C° 0 mm 3 mps 750 mmHg 64%
19:00 +29°C° 0 mm 3 mps 750 mmHg 70%
20:00 +28°C° 0 mm 2 mps 751 mmHg 73%
21:00 +28°C° 0 mm 2 mps 751 mmHg 77%
22:00 +27°C° 0 mm 1 mps 752 mmHg 80%
23:00 +27°C° 0 mm 1 mps 752 mmHg 81%

Day after tomorrow, 8 May, Saturday

Time Temperature Precipitation Wind Pressure Humidity
00:00 +26°C° 0 mm 1 mps 752 mmHg 82%
01:00 +26°C° 0 mm 1 mps 752 mmHg 84%
02:00 +26°C° 0 mm 1 mps 752 mmHg 85%
03:00 +25°C° 0 mm 1 mps 751 mmHg 86%
04:00 +25°C° 0 mm 1 mps 751 mmHg 87%
05:00 +25°C° 0 mm 1 mps 752 mmHg 87%
06:00 +25°C° 0 mm 1 mps 752 mmHg 87%
07:00 +25°C° 0 mm 1 mps 752 mmHg 87%
08:00 +27°C° 0 mm 2 mps 753 mmHg 79%
09:00 +29°C° 0 mm 2 mps 753 mmHg 71%
10:00 +30°C° 0 mm 3 mps 753 mmHg 63%
11:00 +33°C° 0 mm 3 mps 753 mmHg 57%
12:00 +34°C° 0 mm 2 mps 752 mmHg 51%
13:00 +35°C° 0 mm 2 mps 752 mmHg 45%
14:00 +35°C° 0 mm 2 mps 751 mmHg 47%
15:00 +35°C° 0 mm 2 mps 750 mmHg 49%
16:00 +33°C° 0 mm 1 mps 750 mmHg 52%
17:00 +32°C° 0 mm 1 mps 750 mmHg 58%
18:00 +30°C° 0 mm 1 mps 750 mmHg 65%
19:00 +29°C° 0 mm 2 mps 751 mmHg 72%
20:00 +28°C° 0.3 mm 2 mps 751 mmHg 75%
21:00 +27°C° 0.3 mm 2 mps 752 mmHg 78%
22:00 +27°C° 0.3 mm 2 mps 752 mmHg 81%

9 May, Sunday

Time Temperature Precipitation Wind Pressure Humidity

10 May, Monday

Time Temperature Precipitation Wind Pressure Humidity

11 May, Tuesday

Time Temperature Precipitation Wind Pressure Humidity
Show more